Preview of NWS' New Version of Forecast
This preview is not operational and should not be used for support decisions.

Regional Weather Roundup (RWR)

Issued by National Weather Service (NWS)

                            
000
ASUS46 KPQR 241410
RWROR 

OREGON REGIONAL WEATHER ROUNDUP
NATIONAL WEATHER SERVICE PORTLAND OR
700 AM PDT FRI MAY 24 2019

NOTE: "FAIR" INDICATES FEW OR NO CLOUDS BELOW 12,000 FEET WITH
NO SIGNIFICANT WEATHER AND/OR OBSTRUCTIONS TO VISIBILITY.

ORZ001>013-241500-
NORTHWEST OREGON

  
CITY           SKY/WX    TMP DP  RH WIND       PRES   REMARKS
ASTORIA        LGT RAIN  52  50  93 W7        29.99S FOG              
TILLAMOOK      CLOUDY    52  50  93 S3        30.05S FOG              
NEWPORT        CLOUDY    54  50  87 NW6       30.09S                  
PORTLAND       CLOUDY    55  48  77 S8        30.00F                  
VANCOUVER WA   CLOUDY    54  49  83 SE5       30.00S                  
SCAPPOOSE      CLOUDY    55  50  83 CALM      29.99F                  
HILLSBORO      CLOUDY    54  50  86 CALM      30.00S                  
AURORA         CLOUDY    53  47  79 S7        30.02S                  
MCMINNVILLE    CLOUDY    53  47  79 SW8       30.01S                  
SALEM          PTSUNNY   51  49  92 S8        30.03R                  
CORVALLIS      CLOUDY    49  49 100 S3        30.06R                  
EUGENE         PTSUNNY   53  48  83 S7        30.05S                  
$$

ORZ021-028-241500-
SOUTHWEST OREGON

  
CITY           SKY/WX    TMP DP  RH WIND       PRES   REMARKS
NORTH BEND     CLOUDY    53  51  93 N5        30.11R                  
BROOKINGS      CLOUDY    51  50  96 CALM      30.03S FOG              
ROSEBURG       CLOUDY    53  49  86 SW3       30.06S                  
SEXTON SUMMIT  RAIN      46  41  82 N6        30.04R                  
GRANTS PASS    FAIR      50  46  87 CALM      30.05S                  
MEDFORD        SUNNY     52  46  80 CALM      30.02R                  
$$

ORZ014>016-041-241500-
COLUMBIA GORGE

  
CITY           SKY/WX    TMP DP  RH WIND       PRES   REMARKS
TROUTDALE      CLOUDY    54  48  80 SW5       30.00F                  
HOOD RIVER     PTSUNNY   54  46  76 W10G22    29.93R                  
THE DALLES     PTSUNNY   58  45  62 NW17      29.90R                  
$$

ORZ029>031-041-044-049-050-061>064-502-503-505>511-241500-
EASTERN OREGON

  
CITY           SKY/WX    TMP DP  RH WIND       PRES   REMARKS
MADRAS         PTSUNNY   52  46  82 CALM      29.95R                  
REDMOND        CLOUDY    51  44  77 S5        29.94R                  
BEND           CLOUDY    48  45  87 CALM      29.95R                  
PRINEVILLE     CLOUDY    50  46  87 CALM      29.94R                  
KLAMATH FALLS  SUNNY     42  41  96 CALM      30.02R                  
LAKEVIEW       CLOUDY    36  35  96 CALM      30.03R                  
HERMISTON      CLOUDY    62  45  53 W20G32    29.78S                  
PENDLETON      RAIN      58  46  64 W23G38    29.80R                  
JOHN DAY       CLOUDY    47  41  77 SE8       29.92S                  
MEACHAM        LGT RAIN  50  45  83 MISG      29.87S                  
LA GRANDE      HVY RAIN  50  46  86 NW7       29.88R FOG              
BAKER CITY     CLOUDY    48  43  82 CALM      29.88R                  
BURNS          CLOUDY    43  37  79 E5        29.95S                  
ROME             N/A     51  44  77 S8        29.94R                  
ONTARIO        MOSUNNY   53  48  83 E3        29.89S                  
$$